Wind_Speed
7 7 7 7 8 8 8 8 8 7 7 7 6 6 5 5 4 3 4 5 5 4 4 3 3 3 3 1 1 2 2 3 3 3 3 4 4 4 4 5 5 5
6 6 7 7 7 8 8 8 8 8 8 8 8 7 6 6 5 5 5 5 6 6 5 5 4 4 4 3 3 2 2 3 3 3 3 3 3 3 4 4 4 4
5 5 6 6 7 8 8 8 9 9 9 8 8 8 8 7 7 6 6 6 6 7 6 6 6 6 6 5 5 4 4 4 3 3 3 3 4 4 4 4 4 4
4 4 5 5 6 7 8 8 9 9 9 9 9 9 9 9 8 7 7 7 8 8 8 8 7 7 7 7 6 6 6 5 5 4 4 4 4 4 4 4 4 4
5 5 5 5 6 6 7 7 8 8 8 9 9 9 9 9 9 9 9 9 9 9 9 9 9 9 8 8 8 8 7 7 6 6 6 6 5 5 4 4 5 4
5 6 6 6 6 6 7 7 7 7 8 8 8 8 8 9 9 10 10 10 10 10 10 10 10 10 9 9 9 9 8 8 7 7 7 7 6 6 6 5 6 6
7 7 7 7 7 7 8 8 8 8 8 8 8 9 9 9 10 10 10 10 10 11 11 11 11 11 10 10 10 10 9 9 9 8 8 8 8 7 7 7 7 7
8 8 8 8 9 9 9 9 9 9 9 9 10 11 10 11 10 10 10 10 10 11 12 12 11 11 11 11 11 11 10 10 10 9 9 9 9 9 8 8 8 8
9 9 9 9 10 10 10 10 10 10 10 11 11 11 11 12 12 11 11 11 11 11 11 12 11 11 11 11 12 12 11 11 11 10 10 10 10 10 9 8 8 8
9 9 9 10 10 11 11 11 11 11 11 11 11 11 11 11 11 11 12 12 12 12 12 12 12 11 11 12 12 12 13 13 12 12 11 11 11 11 10 9 9 9
10 10 10 10 10 10 11 11 11 12 11 11 11 11 10 10 10 10 11 11 12 12 12 12 12 11 11 12 12 12 13 13 13 13 12 12 12 12 11 11 11 11
10 10 10 10 10 10 11 11 11 11 11 12 11 11 10 10 9 9 9 10 11 11 11 12 11 11 11 11 12 12 13 13 13 13 13 13 13 13 13 13 12 12
11 11 11 11 11 11 11 11 11 11 12 12 12 12 12 11 11 10 10 10 10 10 11 11 11 11 11 11 12 12 12 13 13 14 14 14 14 14 14 13 13 13
11 12 12 11 12 12 12 12 12 13 13 13 13 14 14 13 13 12 11 11 11 11 11 10 11 11 11 11 12 12 13 13 13 14 14 14 14 14 14 14 14 14
11 11 11 11 12 12 13 13 13 14 14 14 14 14 15 15 15 14 13 13 13 12 12 12 12 12 13 13 13 12 12 13 14 14 15 15 15 15 15 14 14 14
10 11 11 12 12 13 14 14 14 14 14 14 15 15 15 16 16 16 15 15 15 15 14 14 14 15 17 18 17 16 15 14 14 15 15 15 16 16 16 15 15 14
11 11 12 13 13 14 15 15 16 15 15 16 16 16 16 16 17 17 17 17 17 17 16 16 17 18 21 22 20 20 19 18 17 16 16 17 17 17 17 16 16 15
11 12 13 14 14 15 16 16 17 17 17 17 17 17 17 17 17 18 19 19 18 19 19 19 19 20 24 25 23 23 23 23 21 19 18 19 18 18 18 17 17 16
12 13 14 15 15 16 16 17 18 19 19 19 19 19 19 19 20 20 20 20 20 20 21 21 21 22 25 27 27 26 25 26 25 22 21 21 20 20 19 19 18 18
11 12 13 14 14 15 16 16 18 19 20 20 21 20 20 21 22 22 22 22 22 22 23 23 23 24 25 28 29 29 28 29 29 27 24 23 23 23 22 22 21 20
10 11 12 13 13 13 14 15 17 18 19 20 21 21 21 22 22 22 23 23 23 24 23 23 24 25 27 29 31 32 31 30 31 31 27 25 25 25 24 24 24 23
12 12 13 13 14 14 14 15 16 17 18 19 19 20 20 20 21 22 22 21 21 22 20 20 23 28 30 30 31 33 33 31 31 31 29 27 27 27 26 26 25 24
15 15 15 15 16 16 16 17 16 17 17 16 16 17 17 17 19 20 19 18 19 21 19 19 22 26 27 28 30 32 32 30 26 24 24 25 26 26 26 26 26 26
16 16 17 17 17 18 18 18 18 17 16 14 13 14 15 16 17 16 16 15 15 17 17 17 20 23 25 26 27 27 27 25 20 20 21 22 23 24 24 24 25 28
16 16 17 18 18 19 19 19 18 16 15 14 12 12 13 14 14 13 14 14 15 17 20 21 23 25 25 23 23 24 24 21 18 19 21 21 21 21 19 19 21 24
14 15 16 16 17 18 18 17 16 14 14 13 13 11 11 12 12 12 13 14 14 15 17 18 20 20 18 18 20 22 22 18 16 18 19 19 20 19 16 17 22 25
Wind_Direction
266 268 271 273 274 276 277 277 279 279 281 280 278 281 280 279 272 249 238 230 226 233 236 240 250 252 257 276 310 340 5 6 4 16 17 7 12 15 9 8 9 7
271 267 268 271 273 275 274 274 276 275 275 274 272 272 271 268 260 255 255 246 235 235 236 238 243 245 251 259 265 279 309 321 329 343 345 344 355 353 343 342 344 345
272 269 268 271 273 274 275 273 273 273 273 272 270 268 267 263 260 257 257 257 252 244 238 239 243 245 247 252 258 264 277 290 301 312 319 328 333 326 325 327 328 331
273 275 276 280 280 277 277 275 273 274 274 274 273 270 267 265 264 263 261 261 262 256 246 239 240 245 249 251 256 261 268 275 281 285 296 307 310 311 319 322 317 316
273 276 280 286 289 286 282 280 279 279 278 278 278 275 272 271 270 270 269 266 264 261 254 246 240 242 246 250 254 259 264 270 274 275 281 290 297 300 308 311 310 312
271 274 278 281 283 284 283 283 282 281 281 282 283 280 277 275 274 275 277 276 271 265 261 256 248 241 241 246 251 256 261 267 272 273 275 281 286 285 286 289 293 296
272 273 275 276 276 276 276 276 275 275 278 281 282 282 280 277 278 279 280 280 276 269 266 262 254 247 244 245 247 251 257 263 268 272 274 277 279 278 276 275 276 281
271 272 273 273 270 269 269 270 270 271 274 276 277 279 278 277 278 279 280 279 276 272 268 265 259 253 250 248 247 250 254 258 262 267 271 274 275 276 276 273 271 275
268 270 270 269 268 268 268 268 270 272 274 276 278 280 279 276 276 275 276 276 274 273 270 266 262 256 251 246 244 248 253 256 258 262 267 270 273 276 279 279 276 276
268 269 268 266 267 268 268 269 270 273 276 278 279 282 281 279 277 274 273 272 270 271 270 267 263 257 250 245 243 247 252 255 258 260 264 267 271 274 277 278 278 279
267 269 267 265 266 268 268 269 271 272 274 276 276 278 280 281 279 274 271 268 265 265 266 267 264 258 251 246 244 246 248 252 257 260 263 266 269 271 272 273 274 275
267 268 267 265 265 267 267 270 272 272 271 272 271 272 276 277 277 273 270 268 267 263 263 264 262 258 253 249 246 246 247 249 252 256 260 264 266 268 269 270 270 270
268 270 270 267 266 266 268 270 273 273 272 271 268 267 269 271 272 271 268 268 268 264 261 260 258 255 251 248 246 245 246 247 250 253 256 260 264 265 266 267 267 266
273 274 274 272 268 268 268 270 272 273 272 272 269 264 264 265 268 268 265 263 264 262 259 256 253 253 250 247 246 244 244 246 248 250 253 257 259 261 262 263 262 261
277 277 276 275 272 270 270 270 272 272 271 271 269 264 262 262 263 263 261 260 258 257 255 251 250 250 248 246 245 244 244 245 247 248 251 254 257 259 260 258 257 257
277 275 274 274 271 269 270 270 271 271 269 269 268 266 264 262 261 260 259 258 257 256 253 249 248 248 251 252 251 249 247 247 250 251 251 253 255 257 258 257 255 254
278 275 275 274 270 268 268 268 269 268 266 266 266 265 263 261 260 259 258 257 258 257 254 250 247 248 255 258 256 252 251 249 249 252 253 254 255 256 258 258 257 255
281 279 280 278 274 271 269 268 267 266 264 264 262 260 259 258 258 258 258 259 258 257 256 253 249 249 256 262 260 256 254 251 249 250 253 254 255 255 257 257 256 255
284 282 282 280 276 273 271 267 265 263 262 260 259 257 255 254 254 254 255 256 257 257 258 256 254 252 256 262 265 261 258 255 251 249 250 253 255 255 256 256 254 253
294 291 289 287 284 280 275 270 267 265 262 258 255 253 251 251 252 250 250 251 252 255 256 258 258 256 256 262 267 267 264 260 255 251 249 251 253 254 255 254 253 250
315 309 304 300 297 292 285 279 276 273 269 263 260 255 251 250 251 250 250 250 249 250 252 253 258 261 262 264 268 271 269 263 258 253 251 251 253 253 253 253 251 249
326 319 312 307 304 298 290 284 280 277 274 270 268 264 258 255 255 255 253 251 251 254 254 253 263 270 270 268 272 275 272 265 259 254 251 251 252 252 251 251 250 248
329 323 315 309 306 300 293 288 283 280 278 276 274 272 268 267 266 263 258 255 258 262 258 255 263 268 269 272 279 281 276 266 258 254 251 250 251 251 249 248 248 247
331 326 320 314 309 304 301 297 292 289 287 285 281 278 277 277 275 271 268 267 269 271 271 271 271 270 271 278 284 286 283 274 263 257 254 252 252 251 249 248 250 249
338 333 327 321 315 312 309 305 301 299 298 295 289 283 282 284 282 277 275 276 277 277 277 276 275 274 279 285 287 287 287 281 269 262 260 256 256 257 255 256 261 261
352 347 341 334 327 323 318 314 311 310 310 307 299 293 292 293 291 284 278 277 277 275 272 269 272 280 291 298 296 293 290 282 265 257 259 259 262 265 264 260 261 262
Height
810 810 810 810 810 809 809 809 809 809 809 809 809 809 809 809 809 809 810 810 810 810 811 811 811 811 811 811 811 810 810 810 810 810 810 810 809 809 808 808 807 807
809 809 809 809 809 809 809 808 808 808 808 808 808 808 808 808 808 808 808 809 809 809 810 810 810 810 810 810 810 810 810 809 809 809 809 809 808 808 808 808 807 807
809 809 809 809 808 808 808 808 807 807 807 807 807 807 807 807 807 807 807 807 808 808 809 809 809 809 809 809 809 809 809 809 808 808 808 808 808 808 807 807 807 806
808 808 808 808 808 808 807 807 807 807 806 806 806 806 806 806 806 806 806 806 806 807 807 807 808 808 808 808 808 808 808 808 807 807 807 807 807 806 806 806 806 805
808 808 807 807 807 807 807 807 806 806 806 806 805 805 805 805 805 805 805 805 805 805 805 805 806 806 806 807 807 807 807 807 806 806 806 806 805 805 805 805 804 804
807 807 806 806 806 806 806 806 805 805 805 805 804 804 804 804 804 803 803 803 803 803 803 803 804 804 805 805 805 805 805 805 805 805 805 804 804 804 804 804 803 803
805 805 805 805 805 805 805 804 804 804 803 803 803 803 803 802 802 802 802 802 802 801 801 801 802 802 802 803 803 803 804 804 803 803 803 803 803 802 802 802 802 801
804 804 803 803 803 803 803 803 803 802 802 802 801 801 801 801 800 800 800 800 800 799 799 799 799 800 800 801 801 802 802 802 802 802 801 801 801 801 800 800 800 800
802 802 802 802 801 801 801 801 801 801 800 800 799 799 799 798 798 798 798 798 797 797 797 797 797 798 798 798 799 799 799 799 800 800 800 800 799 799 799 798 798 798
800 800 800 800 800 799 799 799 799 799 799 798 798 797 797 796 796 796 796 796 795 795 795 794 795 795 796 796 796 797 797 797 797 797 797 797 797 797 797 797 796 796
798 798 798 798 798 798 798 798 797 797 797 796 796 796 795 795 794 794 794 793 793 793 792 792 792 793 793 793 794 794 795 795 795 795 795 795 795 795 795 795 795 795
797 796 796 796 796 796 796 796 796 795 795 795 794 794 794 793 793 793 792 791 791 791 790 790 790 791 791 791 791 792 792 793 793 793 793 793 793 793 792 792 792 792
795 795 795 794 794 794 794 794 794 794 793 793 793 792 792 792 791 791 790 790 789 789 789 788 788 788 788 789 789 789 790 790 790 790 790 790 790 790 790 790 790 790
793 793 793 793 793 792 792 792 792 792 791 791 791 790 790 790 789 789 788 788 788 787 787 787 786 786 786 787 787 787 787 788 788 788 788 788 788 787 787 787 787 787
792 792 791 791 791 791 791 790 790 790 789 789 789 788 788 788 787 787 786 786 786 785 785 785 785 784 784 784 784 785 785 785 785 785 785 785 785 784 784 784 784 784
790 790 789 789 789 789 789 788 788 788 787 787 786 786 786 785 785 785 784 784 783 783 783 783 782 782 781 781 782 782 782 783 783 782 782 782 782 781 781 781 781 781
788 788 787 787 787 786 786 785 785 785 784 784 784 783 783 783 783 782 782 781 781 780 780 780 779 779 778 778 779 779 780 780 780 780 779 779 779 778 778 778 777 777
786 786 785 785 784 784 783 782 782 782 781 781 780 780 780 780 780 779 779 779 778 778 777 777 776 775 774 775 775 776 776 777 777 777 776 776 776 775 775 774 774 774
785 784 783 782 781 781 780 779 779 778 777 777 776 776 776 776 775 775 775 775 775 774 774 773 772 772 771 771 772 772 773 773 773 774 773 773 772 771 771 770 770 770
783 782 781 780 779 778 777 776 776 775 774 773 772 772 772 771 771 770 770 770 770 770 770 769 769 769 769 768 768 768 769 770 770 770 770 769 768 768 767 766 766 766
782 781 780 779 777 777 775 774 773 772 771 770 769 768 767 766 766 766 765 764 764 764 764 764 764 765 765 765 765 765 765 766 766 766 766 765 764 763 763 762 762 762
782 780 779 778 776 775 773 772 771 769 768 767 766 765 764 763 762 762 761 760 760 760 760 759 760 761 761 761 761 762 762 762 762 762 761 760 759 759 758 758 757 757
781 780 778 777 775 773 771 770 768 767 765 764 763 762 761 760 759 758 757 757 757 757 756 755 755 755 756 757 757 758 759 759 759 758 757 756 754 753 753 752 752 752
781 779 777 776 774 772 770 768 766 765 764 762 761 760 759 758 757 756 755 754 754 754 753 753 753 752 752 753 754 754 755 756 756 756 754 751 749 748 748 748 748 747
780 779 777 775 773 771 769 767 765 764 763 761 760 758 757 756 755 754 753 752 751 751 750 751 753 751 748 749 751 751 751 752 753 753 751 748 746 744 744 744 745 745
780 778 777 775 773 771 769 767 765 763 762 761 759 757 756 755 754 753 752 750 749 748 747 748 749 747 745 745 747 747 748 749 749 749 746 744 743 742 741 740 739 740